| time (UTC) | temp F | wind direction | speed MPH | gust MPH | rain 1hr in | rain 24hr in | rain mn in | humidity % | barometer mb |
| 20260901003533 | 89 | 169 | 2.0 | 5.0 | 0.00 | 0.00 | 0.00 | 62 | 1013.6 |
| 20260901003036 | 89 | 125 | 2.0 | 7.0 | 0.00 | 0.00 | 0.00 | 62 | 1013.6 |
| 20260901002533 | 89 | 123 | 2.0 | 7.0 | 0.00 | 0.00 | 0.00 | 61 | 1013.6 |
| 20260901002033 | 89 | 155 | 1.0 | 5.0 | 0.00 | 0.00 | 0.00 | 61 | 1013.7 |
| 20260901001534 | 89 | 94 | 1.0 | 4.0 | 0.00 | 0.00 | 0.00 | 61 | 1013.6 |
| 20260901001034 | 89 | 137 | 2.0 | 4.0 | 0.00 | 0.00 | 0.00 | 61 | 1013.6 |
| 20260901000531 | 89 | 137 | 1.0 | 3.0 | 0.00 | 0.00 | 0.00 | 61 | 1013.6 |
| 20260901000032 | 89 | 136 | 1.0 | 5.0 | 0.00 | 0.00 | 0.00 | 61 | 1013.7 |
| 20260831235531 | 89 | 113 | 2.0 | 5.0 | 0.00 | 0.00 | 0.00 | 61 | 1013.6 |
| 20260831235033 | 89 | 128 | 1.0 | 4.0 | 0.00 | 0.00 | 0.00 | 61 | 1013.6 |
| 20260831234530 | 89 | 171 | 2.0 | 5.0 | 0.00 | 0.00 | 0.00 | 60 | 1013.6 |
| 20260831234032 | 89 | 121 | 2.0 | 5.0 | 0.00 | 0.00 | 0.00 | 60 | 1013.7 |
| 20260831233534 | 89 | 130 | 2.0 | 6.0 | 0.00 | 0.00 | 0.00 | 60 | 1013.6 |
| 20260831233040 | 89 | 119 | 2.0 | 7.0 | 0.00 | 0.00 | 0.00 | 60 | 1013.6 |
| 20260831232531 | 90 | 91 | 3.0 | 7.0 | 0.00 | 0.00 | 0.00 | 59 | 1013.7 |
| 20260831232031 | 90 | 82 | 2.0 | 7.0 | 0.00 | 0.00 | 0.00 | 59 | 1013.6 |
| 20260831231536 | 90 | 111 | 3.0 | 8.0 | 0.00 | 0.00 | 0.00 | 58 | 1013.5 |
| 20260831231030 | 90 | 84 | 3.0 | 8.0 | 0.00 | 0.00 | 0.00 | 57 | 1013.5 |
| 20260831230529 | 90 | 124 | 3.0 | 8.0 | 0.00 | 0.00 | 0.00 | 56 | 1013.5 |
| 20260831230029 | 90 | 156 | 2.0 | 7.0 | 0.00 | 0.00 | 0.00 | 55 | 1013.6 |
| 20260831225529 | 90 | 119 | 1.0 | 7.0 | 0.00 | 0.00 | 0.00 | 54 | 1013.6 |
| 20260831225032 | 90 | 120 | 2.0 | 7.0 | 0.00 | 0.00 | 0.00 | 53 | 1013.6 |
| 20260831224528 | 90 | 127 | 3.0 | 7.0 | 0.00 | 0.00 | 0.00 | 51 | 1013.6 |
| 20260831224028 | 90 | 180 | 2.0 | 7.0 | 0.00 | 0.00 | 0.00 | 52 | 1013.6 |
| 20260831223527 | 90 | 98 | 3.0 | 7.0 | 0.00 | 0.00 | 0.00 | 52 | 1013.7 |
| 20260831223027 | 90 | 121 | 1.0 | 5.0 | 0.00 | 0.00 | 0.00 | 52 | 1013.8 |
| 20260831222526 | 90 | 147 | 3.0 | 8.0 | 0.00 | 0.00 | 0.00 | 52 | 1013.7 |
| 20260831222027 | 91 | 168 | 3.0 | 8.0 | 0.00 | 0.00 | 0.00 | 52 | 1013.7 |
| 20260831221534 | 90 | 158 | 2.0 | 8.0 | 0.00 | 0.00 | 0.00 | 52 | 1013.8 |
| 20260831221026 | 91 | 128 | 3.0 | 8.0 | 0.00 | 0.00 | 0.00 | 51 | 1013.9 |
| 20260831220529 | 91 | 156 | 3.0 | 7.0 | 0.00 | 0.00 | 0.00 | 50 | 1013.9 |
| 20260831220026 | 91 | 99 | 2.0 | 9.0 | 0.00 | 0.00 | 0.00 | 51 | 1013.9 |
| 20260831215524 | 91 | 122 | 3.0 | 9.0 | 0.00 | 0.00 | 0.00 | 51 | 1014.0 |
| 20260831215023 | 91 | 136 | 4.0 | 11.0 | 0.00 | 0.00 | 0.00 | 51 | 1014.1 |
| 20260831214522 | 91 | 161 | 4.0 | 11.0 | 0.00 | 0.00 | 0.00 | 52 | 1014.1 |
| 20260831214022 | 91 | 114 | 4.0 | 10.0 | 0.00 | 0.00 | 0.00 | 52 | 1014.2 |
| 20260831213521 | 91 | 101 | 5.0 | 11.0 | 0.00 | 0.00 | 0.00 | 53 | 1014.2 |
| 20260831213020 | 91 | 126 | 5.0 | 13.0 | 0.00 | 0.00 | 0.00 | 54 | 1014.2 |
| 20260831212520 | 90 | 131 | 5.0 | 13.0 | 0.00 | 0.00 | 0.00 | 56 | 1014.3 |
| 20260831212020 | 91 | 136 | 5.0 | 8.0 | 0.00 | 0.00 | 0.00 | 57 | 1014.4 |
| 20260831211520 | 91 | 81 | 3.0 | 8.0 | 0.00 | 0.00 | 0.00 | 60 | 1014.4 |
| 20260831211019 | 90 | 43 | 3.0 | 9.0 | 0.00 | 0.00 | 0.00 | 59 | 1014.4 |
| 20260831210518 | 91 | 53 | 4.0 | 9.0 | 0.00 | 0.00 | 0.00 | 58 | 1014.4 |
| 20260831210019 | 91 | 115 | 3.0 | 8.0 | 0.00 | 0.00 | 0.00 | 56 | 1014.5 |
| 20260831205520 | 91 | 101 | 3.0 | 7.0 | 0.00 | 0.00 | 0.00 | 55 | 1014.5 |
| 20260831205017 | 91 | 63 | 2.0 | 8.0 | 0.00 | 0.00 | 0.00 | 55 | 1014.5 |
| 20260831204517 | 91 | 58 | 3.0 | 8.0 | 0.00 | 0.00 | 0.00 | 55 | 1014.6 |
| 20260831204017 | 91 | 109 | 4.0 | 8.0 | 0.00 | 0.00 | 0.00 | 57 | 1014.7 |
| 20260831203515 | 91 | 128 | 4.0 | 10.0 | 0.00 | 0.00 | 0.00 | 57 | 1014.6 |
| 20260831203015 | 92 | 139 | 5.0 | 10.0 | 0.00 | 0.00 | 0.00 | 57 | 1014.6 |
| 20260831202514 | 92 | 108 | 5.0 | 10.0 | 0.00 | 0.00 | 0.00 | 57 | 1014.8 |
| 20260831202014 | 92 | 90 | 4.0 | 10.0 | 0.00 | 0.00 | 0.00 | 57 | 1014.8 |
| 20260831201522 | 93 | 134 | 5.0 | 10.0 | 0.00 | 0.00 | 0.00 | 55 | 1014.9 |
| 20260831201014 | 94 | 87 | 2.0 | 8.0 | 0.00 | 0.00 | 0.00 | 52 | 1014.9 |
| 20260831200512 | 94 | 90 | 2.0 | 8.0 | 0.00 | 0.00 | 0.00 | 51 | 1014.9 |
| 20260831200012 | 95 | 166 | 4.0 | 8.0 | 0.00 | 0.00 | 0.00 | 50 | 1014.9 |
| 20260831195512 | 96 | 114 | 3.0 | 7.0 | 0.00 | 0.00 | 0.00 | 48 | 1014.9 |
| 20260831195012 | 96 | 44 | 1.0 | 8.0 | 0.00 | 0.00 | 0.00 | 49 | 1014.9 |
| 20260831194512 | 96 | 84 | 3.0 | 8.0 | 0.00 | 0.00 | 0.00 | 49 | 1015.1 |
| 20260831194013 | 96 | 117 | 2.0 | 7.0 | 0.00 | 0.00 | 0.00 | 49 | 1015.1 |
| 20260831193512 | 97 | 116 | 2.0 | 8.0 | 0.00 | 0.00 | 0.00 | 48 | 1015.1 |
| 20260831193017 | 98 | 87 | 3.0 | 8.0 | 0.00 | 0.00 | 0.00 | 46 | 1015.1 |
| 20260831192511 | 100 | 103 | 3.0 | 8.0 | 0.00 | 0.00 | 0.00 | 44 | 1015.2 |
| 20260831192013 | 100 | 351 | 1.0 | 5.0 | 0.00 | 0.00 | 0.00 | 44 | 1015.2 |
| 20260831191511 | 99 | 299 | 1.0 | 5.0 | 0.00 | 0.00 | 0.00 | 45 | 1015.3 |
| 20260831191010 | 98 | 297 | 2.0 | 6.0 | 0.00 | 0.00 | 0.00 | 48 | 1015.4 |
| 20260831190509 | 96 | 107 | 3.0 | 7.0 | 0.00 | 0.00 | 0.00 | 49 | 1015.5 |
| 20260831190015 | 96 | 115 | 4.0 | 8.0 | 0.00 | 0.00 | 0.00 | 49 | 1015.5 |
| 20260831185509 | 96 | 188 | 3.0 | 8.0 | 0.00 | 0.00 | 0.00 | 49 | 1015.6 |
| 20260831185010 | 96 | 345 | 0.0 | 7.0 | 0.00 | 0.00 | 0.00 | 50 | 1015.7 |
| 20260831184509 | 95 | 39 | 1.0 | 7.0 | 0.00 | 0.00 | 0.00 | 50 | 1015.8 |
| 20260831184008 | 95 | 123 | 2.0 | 5.0 | 0.00 | 0.00 | 0.00 | 50 | 1015.8 |
| 20260831183509 | 94 | 128 | 1.0 | 6.0 | 0.00 | 0.00 | 0.00 | 51 | 1015.9 |
| 20260831183008 | 93 | 129 | 2.0 | 7.0 | 0.00 | 0.00 | 0.00 | 52 | 1015.9 |
| 20260831182508 | 93 | 74 | 2.0 | 7.0 | 0.00 | 0.00 | 0.00 | 53 | 1016.0 |
| 20260831182011 | 93 | 121 | 3.0 | 7.0 | 0.00 | 0.00 | 0.00 | 53 | 1016.1 |
| 20260831181509 | 94 | 137 | 2.0 | 8.0 | 0.00 | 0.00 | 0.00 | 52 | 1016.1 |
| 20260831181007 | 94 | 103 | 3.0 | 6.0 | 0.00 | 0.00 | 0.00 | 52 | 1016.2 |
| 20260831180506 | 95 | 142 | 2.0 | 7.0 | 0.00 | 0.00 | 0.00 | 49 | 1016.3 |
| 20260831180006 | 96 | 96 | 3.0 | 7.0 | 0.00 | 0.00 | 0.00 | 48 | 1016.3 |
| 20260831175506 | 97 | 202 | 1.0 | 5.0 | 0.00 | 0.00 | 0.00 | 48 | 1016.3 |
| 20260831175007 | 96 | 31 | 1.0 | 7.0 | 0.00 | 0.00 | 0.00 | 49 | 1016.4 |
| 20260831174513 | 96 | 98 | 3.0 | 7.0 | 0.00 | 0.00 | 0.00 | 49 | 1016.4 |
| 20260831174006 | 97 | 149 | 2.0 | 7.0 | 0.00 | 0.00 | 0.00 | 48 | 1016.5 |
| 20260831173505 | 98 | 135 | 4.0 | 6.0 | 0.00 | 0.00 | 0.00 | 47 | 1016.5 |
| 20260831173013 | 98 | 36 | 2.0 | 6.0 | 0.00 | 0.00 | 0.00 | 46 | 1016.7 |
| 20260831172505 | 98 | 55 | 2.0 | 5.0 | 0.00 | 0.00 | 0.00 | 48 | 1016.7 |
| 20260831172005 | 96 | 142 | 2.0 | 9.0 | 0.00 | 0.00 | 0.00 | 48 | 1016.7 |
| 20260831171512 | 96 | 186 | 1.0 | 9.0 | 0.00 | 0.00 | 0.00 | 49 | 1016.7 |
| 20260831171006 | 96 | 338 | 2.0 | 7.0 | 0.00 | 0.00 | 0.00 | 50 | 1016.8 |
| 20260831170504 | 95 | 360 | 2.0 | 7.0 | 0.00 | 0.00 | 0.00 | 50 | 1016.8 |
| 20260831170010 | 94 | 146 | 4.0 | 7.0 | 0.00 | 0.00 | 0.00 | 51 | 1016.8 |
| 20260831165506 | 95 | 161 | 3.0 | 6.0 | 0.00 | 0.00 | 0.00 | 51 | 1016.8 |
| 20260831165002 | 98 | 164 | 2.0 | 6.0 | 0.00 | 0.00 | 0.00 | 47 | 1016.8 |
| 20260831164503 | 98 | 44 | 1.0 | 4.0 | 0.00 | 0.00 | 0.00 | 46 | 1016.8 |
| 20260831164002 | 98 | 48 | 0.0 | 3.0 | 0.00 | 0.00 | 0.00 | 47 | 1016.8 |
| 20260831163501 | 96 | 36 | 1.0 | 6.0 | 0.00 | 0.00 | 0.00 | 49 | 1016.9 |
| 20260831163002 | 94 | 355 | 2.0 | 6.0 | 0.00 | 0.00 | 0.00 | 50 | 1016.9 |
| 20260831162505 | 95 | 105 | 3.0 | 6.0 | 0.00 | 0.00 | 0.00 | 50 | 1016.9 |
| 20260831162002 | 95 | 355 | 2.0 | 8.0 | 0.00 | 0.00 | 0.00 | 51 | 1016.9 |
| 20260831161500 | 93 | 104 | 3.0 | 8.0 | 0.00 | 0.00 | 0.00 | 52 | 1017.0 |
| 20260831161001 | 94 | 165 | 3.0 | 8.0 | 0.00 | 0.00 | 0.00 | 51 | 1017.0 |
| 20260831160600 | 94 | 52 | 3.0 | 8.0 | 0.00 | 0.00 | 0.00 | 52 | 1017.0 |
| 20260831160100 | 94 | 143 | 2.0 | 5.0 | 0.00 | 0.00 | 0.00 | 52 | 1017.0 |
| 20260831155600 | 94 | 156 | 2.0 | 5.0 | 0.00 | 0.00 | 0.00 | 54 | 1017.1 |
| 20260831155100 | 95 | 103 | 3.0 | 5.0 | 0.00 | 0.00 | 0.00 | 53 | 1017.1 |
| 20260831154559 | 96 | 121 | 3.0 | 7.0 | 0.00 | 0.00 | 0.00 | 50 | 1017.0 |
| 20260831154059 | 100 | 79 | 3.0 | 7.0 | 0.00 | 0.00 | 0.00 | 48 | 1016.9 |
| 20260831153557 | 100 | 5 | 1.0 | 4.0 | 0.00 | 0.00 | 0.00 | 48 | 1016.9 |
| 20260831153058 | 99 | 14 | 1.0 | 3.0 | 0.00 | 0.00 | 0.00 | 48 | 1016.9 |
| 20260831152555 | 98 | 360 | 1.0 | 4.0 | 0.00 | 0.00 | 0.00 | 50 | 1016.9 |
| 20260831152053 | 96 | 31 | 2.0 | 4.0 | 0.00 | 0.00 | 0.00 | 52 | 1017.0 |
| 20260831151604 | 96 | 38 | 0.0 | 3.0 | 0.00 | 0.00 | 0.00 | 54 | 1017.0 |
| 20260831151050 | 95 | 36 | 1.0 | 3.0 | 0.00 | 0.00 | 0.00 | 54 | 1016.9 |
| 20260831150548 | 95 | 37 | 0.0 | 3.0 | 0.00 | 0.00 | 0.00 | 55 | 1016.8 |
| 20260831150047 | 95 | 36 | 1.0 | 3.0 | 0.00 | 0.00 | 0.00 | 57 | 1016.8 |
| 20260831145546 | 94 | 157 | 0.0 | 2.0 | 0.00 | 0.00 | 0.00 | 61 | 1016.8 |
| 20260831145045 | 93 | 157 | 0.0 | 2.0 | 0.00 | 0.00 | 0.00 | 61 | 1016.8 |
| 20260831144546 | 92 | 157 | 0.0 | 3.0 | 0.00 | 0.00 | 0.00 | 63 | 1016.7 |
| 20260831144044 | 92 | 157 | 0.0 | 3.0 | 0.00 | 0.00 | 0.00 | 64 | 1016.6 |
| 20260831143544 | 92 | 156 | 1.0 | 3.0 | 0.00 | 0.00 | 0.00 | 63 | 1016.7 |
| 20260831143043 | 91 | 167 | 0.0 | 3.0 | 0.00 | 0.00 | 0.00 | 65 | 1016.7 |
| 20260831142542 | 90 | 166 | 0.0 | 3.0 | 0.00 | 0.00 | 0.00 | 67 | 1016.7 |
| 20260831142042 | 91 | 166 | 1.0 | 4.0 | 0.00 | 0.00 | 0.00 | 66 | 1016.6 |
| 20260831141542 | 90 | 159 | 0.0 | 2.0 | 0.00 | 0.00 | 0.00 | 69 | 1016.7 |
| 20260831141042 | 89 | 159 | 0.0 | 2.0 | 0.00 | 0.00 | 0.00 | 71 | 1016.5 |
| 20260831140541 | 89 | 159 | 0.0 | 3.0 | 0.00 | 0.00 | 0.00 | 71 | 1016.5 |
| 20260831140047 | 89 | 159 | 0.0 | 3.0 | 0.00 | 0.00 | 0.00 | 71 | 1016.5 |
| 20260831135535 | 88 | 170 | 0.0 | 2.0 | 0.00 | 0.00 | 0.00 | 72 | 1016.5 |
| 20260831135036 | 87 | 170 | 0.0 | 2.0 | 0.00 | 0.00 | 0.00 | 74 | 1016.4 |
| 20260831134538 | 87 | 170 | 0.0 | 1.0 | 0.00 | 0.00 | 0.00 | 75 | 1016.4 |
| 20260831134032 | 86 | 170 | 0.0 | 2.0 | 0.00 | 0.00 | 0.00 | 78 | 1016.3 |
| 20260831133530 | 84 | 170 | 0.0 | 2.0 | 0.00 | 0.00 | 0.00 | 81 | 1016.3 |
| 20260831133031 | 83 | 170 | 0.0 | 2.0 | 0.00 | 0.00 | 0.00 | 83 | 1016.3 |
| 20260831132527 | 82 | 170 | 0.0 | 2.0 | 0.00 | 0.00 | 0.00 | 85 | 1016.3 |
| 20260831132028 | 81 | 170 | 0.0 | 1.0 | 0.00 | 0.00 | 0.00 | 87 | 1016.3 |
| 20260831131525 | 80 | 170 | 0.0 | 2.0 | 0.00 | 0.00 | 0.00 | 90 | 1016.3 |
| 20260831131030 | 79 | 170 | 0.0 | 2.0 | 0.00 | 0.00 | 0.00 | 92 | 1016.2 |
| 20260831130524 | 78 | 170 | 0.0 | 1.0 | 0.00 | 0.00 | 0.00 | 92 | 1016.3 |
| 20260831130024 | 78 | 170 | 0.0 | 1.0 | 0.00 | 0.00 | 0.00 | 93 | 1016.2 |
| 20260831125526 | 77 | 170 | 0.0 | 0.0 | 0.00 | 0.00 | 0.00 | 92 | 1016.1 |
| 20260831125021 | 76 | 170 | 0.0 | 0.0 | 0.00 | 0.00 | 0.00 | 92 | 1016.0 |
| 20260831124523 | 76 | 170 | 0.0 | 1.0 | 0.00 | 0.00 | 0.00 | 91 | 1015.8 |
| 20260831124020 | 76 | 170 | 0.0 | 1.0 | 0.00 | 0.00 | 0.00 | 91 | 1015.8 |
| 20260831123520 | 76 | 170 | 0.0 | 1.0 | 0.00 | 0.00 | 0.00 | 91 | 1015.8 |
| 20260831123025 | 76 | 170 | 0.0 | 1.0 | 0.00 | 0.00 | 0.00 | 91 | 1015.8 |
| 20260831122523 | 76 | 170 | 0.0 | 1.0 | 0.00 | 0.00 | 0.00 | 91 | 1015.7 |
| 20260831122019 | 76 | 170 | 0.0 | 0.0 | 0.00 | 0.00 | 0.00 | 90 | 1015.6 |
| 20260831121519 | 76 | 170 | 0.0 | 0.0 | 0.00 | 0.00 | 0.00 | 90 | 1015.5 |
| 20260831121019 | 76 | 170 | 0.0 | 0.0 | 0.00 | 0.00 | 0.00 | 90 | 1015.3 |
| 20260831120518 | 76 | 170 | 0.0 | 0.0 | 0.00 | 0.00 | 0.00 | 90 | 1015.2 |
| 20260831120017 | 76 | 170 | 0.0 | 0.0 | 0.00 | 0.00 | 0.00 | 90 | 1015.2 |
| 20260831115518 | 76 | 170 | 0.0 | 0.0 | 0.00 | 0.00 | 0.00 | 90 | 1015.2 |
| 20260831115019 | 76 | 170 | 0.0 | 0.0 | 0.00 | 0.00 | 0.00 | 90 | 1015.2 |
| 20260831114517 | 76 | 170 | 0.0 | 0.0 | 0.00 | 0.00 | 0.00 | 90 | 1015.2 |
| 20260831114016 | 76 | 170 | 0.0 | 0.0 | 0.00 | 0.00 | 0.00 | 90 | 1015.2 |
| 20260831113518 | 76 | 170 | 0.0 | 0.0 | 0.00 | 0.00 | 0.00 | 89 | 1015.2 |
| 20260831113016 | 76 | 170 | 0.0 | 0.0 | 0.00 | 0.00 | 0.00 | 89 | 1015.2 |
| 20260831112516 | 76 | 170 | 0.0 | 0.0 | 0.00 | 0.00 | 0.00 | 89 | 1015.2 |
| 20260831112016 | 76 | 170 | 0.0 | 0.0 | 0.00 | 0.00 | 0.00 | 89 | 1015.2 |
| 20260831111515 | 76 | 170 | 0.0 | 0.0 | 0.00 | 0.00 | 0.00 | 89 | 1015.2 |
| 20260831111014 | 76 | 170 | 0.0 | 0.0 | 0.00 | 0.00 | 0.00 | 89 | 1015.3 |
| 20260831110514 | 76 | 170 | 0.0 | 0.0 | 0.00 | 0.00 | 0.00 | 89 | 1015.2 |
| 20260831110013 | 76 | 170 | 0.0 | 0.0 | 0.00 | 0.00 | 0.00 | 89 | 1015.2 |
| 20260831105513 | 76 | 170 | 0.0 | 0.0 | 0.00 | 0.00 | 0.00 | 89 | 1015.2 |
| 20260831105013 | 76 | 170 | 0.0 | 0.0 | 0.00 | 0.00 | 0.00 | 89 | 1015.2 |
| 20260831104521 | 77 | 170 | 0.0 | 0.0 | 0.00 | 0.00 | 0.00 | 89 | 1015.3 |
| 20260831104012 | 76 | 170 | 0.0 | 0.0 | 0.00 | 0.00 | 0.00 | 89 | 1015.2 |
| 20260831103512 | 77 | 170 | 0.0 | 0.0 | 0.00 | 0.00 | 0.00 | 88 | 1015.1 |
| 20260831103013 | 77 | 170 | 0.0 | 0.0 | 0.00 | 0.00 | 0.00 | 88 | 1015.1 |
| 20260831102516 | 77 | 170 | 0.0 | 0.0 | 0.00 | 0.00 | 0.00 | 88 | 1015.2 |
| 20260831102014 | 77 | 170 | 0.0 | 1.0 | 0.00 | 0.00 | 0.00 | 88 | 1015.3 |
| 20260831101511 | 77 | 170 | 0.0 | 1.0 | 0.00 | 0.00 | 0.00 | 88 | 1015.3 |
| 20260831101011 | 77 | 170 | 0.0 | 0.0 | 0.00 | 0.00 | 0.00 | 88 | 1015.3 |
| 20260831100510 | 77 | 170 | 0.0 | 0.0 | 0.00 | 0.00 | 0.00 | 88 | 1015.3 |
| 20260831100012 | 77 | 170 | 0.0 | 0.0 | 0.00 | 0.00 | 0.00 | 88 | 1015.3 |
| 20260831095509 | 77 | 170 | 0.0 | 0.0 | 0.00 | 0.00 | 0.00 | 88 | 1015.3 |
| 20260831095012 | 77 | 170 | 0.0 | 0.0 | 0.00 | 0.00 | 0.00 | 88 | 1015.2 |
| 20260831094512 | 77 | 170 | 0.0 | 0.0 | 0.00 | 0.00 | 0.00 | 88 | 1015.2 |
| 20260831094013 | 77 | 170 | 0.0 | 0.0 | 0.00 | 0.00 | 0.00 | 88 | 1015.2 |
| 20260831093508 | 77 | 170 | 0.0 | 1.0 | 0.00 | 0.00 | 0.00 | 88 | 1015.1 |
| 20260831093012 | 77 | 170 | 0.0 | 1.0 | 0.00 | 0.00 | 0.00 | 88 | 1015.1 |
| 20260831092508 | 77 | 170 | 0.0 | 1.0 | 0.00 | 0.00 | 0.00 | 88 | 1015.1 |
| 20260831092007 | 77 | 170 | 0.0 | 1.0 | 0.00 | 0.00 | 0.00 | 88 | 1015.1 |
| 20260831091508 | 77 | 170 | 0.0 | 1.0 | 0.00 | 0.00 | 0.00 | 89 | 1015.1 |
| 20260831091009 | 77 | 170 | 0.0 | 1.0 | 0.00 | 0.00 | 0.00 | 89 | 1015.1 |
| 20260831090506 | 77 | 170 | 0.0 | 2.0 | 0.00 | 0.00 | 0.00 | 88 | 1015.2 |
| 20260831090005 | 78 | 170 | 0.0 | 2.0 | 0.00 | 0.00 | 0.00 | 88 | 1015.2 |
| 20260831085505 | 78 | 170 | 0.0 | 2.0 | 0.00 | 0.00 | 0.00 | 88 | 1015.3 |
| 20260831085008 | 78 | 170 | 0.0 | 2.0 | 0.00 | 0.00 | 0.00 | 88 | 1015.3 |
| 20260831084504 | 78 | 170 | 0.0 | 1.0 | 0.00 | 0.00 | 0.00 | 88 | 1015.3 |
| 20260831084003 | 78 | 170 | 0.0 | 1.0 | 0.00 | 0.00 | 0.00 | 88 | 1015.3 |
| 20260831083503 | 78 | 170 | 0.0 | 1.0 | 0.00 | 0.00 | 0.00 | 87 | 1015.3 |
| 20260831083003 | 78 | 170 | 0.0 | 1.0 | 0.00 | 0.00 | 0.00 | 87 | 1015.2 |
| 20260831082502 | 78 | 170 | 0.0 | 1.0 | 0.00 | 0.00 | 0.00 | 88 | 1015.3 |
| 20260831082002 | 78 | 170 | 0.0 | 1.0 | 0.00 | 0.00 | 0.00 | 87 | 1015.2 |
| 20260831081502 | 78 | 170 | 0.0 | 1.0 | 0.00 | 0.00 | 0.00 | 87 | 1015.2 |
| 20260831081002 | 78 | 170 | 0.0 | 1.0 | 0.00 | 0.00 | 0.00 | 87 | 1015.2 |
| 20260831080501 | 78 | 170 | 0.0 | 1.0 | 0.00 | 0.00 | 0.00 | 87 | 1015.2 |
| 20260831080002 | 78 | 170 | 0.0 | 1.0 | 0.00 | 0.00 | 0.00 | 87 | 1015.3 |
| 20260831075602 | 78 | 170 | 0.0 | 1.0 | 0.00 | 0.00 | 0.00 | 87 | 1015.3 |
| 20260831075102 | 78 | 170 | 0.0 | 1.0 | 0.00 | 0.00 | 0.00 | 86 | 1015.3 |
| 20260831074559 | 78 | 170 | 0.0 | 1.0 | 0.00 | 0.00 | 0.00 | 86 | 1015.3 |
| 20260831074058 | 78 | 170 | 0.0 | 1.0 | 0.00 | 0.00 | 0.00 | 86 | 1015.3 |
| 20260831073558 | 79 | 170 | 0.0 | 2.0 | 0.00 | 0.00 | 0.00 | 85 | 1015.3 |
| 20260831073100 | 79 | 170 | 0.0 | 2.0 | 0.00 | 0.00 | 0.00 | 86 | 1015.4 |
| 20260831072556 | 79 | 170 | 0.0 | 1.0 | 0.00 | 0.00 | 0.00 | 85 | 1015.4 |
| 20260831072056 | 79 | 170 | 0.0 | 2.0 | 0.00 | 0.00 | 0.00 | 85 | 1015.4 |
| 20260831071556 | 79 | 170 | 0.0 | 2.0 | 0.00 | 0.00 | 0.00 | 86 | 1015.4 |
| 20260831071056 | 79 | 170 | 0.0 | 2.0 | 0.00 | 0.00 | 0.00 | 86 | 1015.4 |
| 20260831070555 | 79 | 170 | 0.0 | 2.0 | 0.00 | 0.00 | 0.00 | 86 | 1015.4 |
| 20260831070109 | 79 | 170 | 0.0 | 2.0 | 0.00 | 0.00 | 0.00 | 86 | 1015.5 |
| 20260831065554 | 79 | 170 | 0.0 | 2.0 | 0.00 | 0.00 | 0.00 | 86 | 1015.5 |
| 20260831065056 | 79 | 170 | 0.0 | 2.0 | 0.00 | 0.00 | 0.00 | 85 | 1015.5 |
| 20260831064554 | 79 | 170 | 0.0 | 3.0 | 0.00 | 0.00 | 0.00 | 85 | 1015.5 |
| 20260831064053 | 79 | 170 | 0.0 | 3.0 | 0.00 | 0.00 | 0.00 | 85 | 1015.5 |
| 20260831063552 | 79 | 169 | 0.0 | 2.0 | 0.00 | 0.00 | 0.00 | 85 | 1015.7 |
| 20260831063054 | 79 | 169 | 0.0 | 2.0 | 0.00 | 0.00 | 0.00 | 84 | 1015.7 |
| 20260831062554 | 79 | 169 | 0.0 | 2.0 | 0.00 | 0.00 | 0.00 | 84 | 1015.7 |
| 20260831062052 | 80 | 169 | 0.0 | 2.0 | 0.00 | 0.00 | 0.00 | 84 | 1015.7 |
| 20260831061552 | 80 | 169 | 0.0 | 3.0 | 0.00 | 0.00 | 0.00 | 84 | 1015.7 |
| 20260831061053 | 80 | 169 | 0.0 | 3.0 | 0.00 | 0.00 | 0.00 | 84 | 1015.6 |
| 20260831060551 | 80 | 169 | 0.0 | 3.0 | 0.00 | 0.00 | 0.00 | 84 | 1015.6 |
| 20260831060051 | 80 | 169 | 0.0 | 3.0 | 0.00 | 0.00 | 0.00 | 84 | 1015.7 |
| 20260831055550 | 80 | 169 | 0.0 | 5.0 | 0.00 | 0.00 | 0.00 | 83 | 1015.7 |
| 20260831055049 | 80 | 169 | 2.0 | 5.0 | 0.00 | 0.00 | 0.00 | 83 | 1015.7 |
| 20260831054549 | 80 | 169 | 1.0 | 4.0 | 0.00 | 0.00 | 0.00 | 83 | 1015.7 |
| 20260831054049 | 80 | 169 | 1.0 | 4.0 | 0.00 | 0.00 | 0.00 | 83 | 1015.7 |
| 20260831053549 | 80 | 180 | 0.0 | 4.0 | 0.00 | 0.00 | 0.00 | 83 | 1015.6 |
| 20260831053048 | 80 | 180 | 1.0 | 4.0 | 0.00 | 0.00 | 0.00 | 83 | 1015.6 |
| 20260831052550 | 80 | 171 | 0.0 | 3.0 | 0.00 | 0.00 | 0.00 | 82 | 1015.6 |
| 20260831052046 | 80 | 163 | 0.0 | 3.0 | 0.00 | 0.00 | 0.00 | 82 | 1015.5 |
| 20260831051552 | 80 | 163 | 0.0 | 3.0 | 0.00 | 0.00 | 0.00 | 82 | 1015.5 |
| 20260831051045 | 80 | 163 | 1.0 | 3.0 | 0.00 | 0.00 | 0.00 | 82 | 1015.5 |
| 20260831050545 | 81 | 163 | 0.0 | 2.0 | 0.00 | 0.00 | 0.00 | 81 | 1015.5 |
| 20260831050043 | 81 | 163 | 0.0 | 3.0 | 0.00 | 0.00 | 0.00 | 81 | 1015.4 |
| 20260831045543 | 81 | 163 | 0.0 | 3.0 | 0.00 | 0.00 | 0.00 | 81 | 1015.4 |
| 20260831045043 | 81 | 163 | 0.0 | 2.0 | 0.00 | 0.00 | 0.00 | 81 | 1015.4 |
| 20260831044551 | 81 | 163 | 0.0 | 5.0 | 0.00 | 0.00 | 0.00 | 81 | 1015.4 |
| 20260831044043 | 81 | 163 | 2.0 | 5.0 | 0.00 | 0.00 | 0.00 | 81 | 1015.5 |
| 20260831043542 | 81 | 163 | 2.0 | 4.0 | 0.00 | 0.00 | 0.00 | 80 | 1015.4 |
| 20260831043044 | 81 | 163 | 0.0 | 5.0 | 0.00 | 0.00 | 0.00 | 80 | 1015.4 |
| 20260831042544 | 81 | 163 | 1.0 | 5.0 | 0.00 | 0.00 | 0.00 | 80 | 1015.3 |
| 20260831042042 | 81 | 175 | 0.0 | 4.0 | 0.00 | 0.00 | 0.00 | 79 | 1015.3 |
| 20260831041549 | 81 | 175 | 1.0 | 4.0 | 0.00 | 0.00 | 0.00 | 79 | 1015.3 |
| 20260831041045 | 81 | 174 | 1.0 | 4.0 | 0.00 | 0.00 | 0.00 | 79 | 1015.3 |
| 20260831040542 | 81 | 163 | 2.0 | 4.0 | 0.00 | 0.00 | 0.00 | 79 | 1015.3 |
| 20260831040042 | 82 | 163 | 1.0 | 5.0 | 0.00 | 0.00 | 0.00 | 78 | 1015.2 |
| 20260831035544 | 82 | 163 | 0.0 | 5.0 | 0.00 | 0.00 | 0.00 | 78 | 1015.2 |
| 20260831035041 | 82 | 163 | 2.0 | 6.0 | 0.00 | 0.00 | 0.00 | 77 | 1015.2 |
| 20260831034541 | 82 | 174 | 2.0 | 6.0 | 0.00 | 0.00 | 0.00 | 77 | 1015.2 |
| 20260831034041 | 82 | 167 | 3.0 | 5.0 | 0.00 | 0.00 | 0.00 | 76 | 1015.1 |
| 20260831033541 | 82 | 166 | 2.0 | 5.0 | 0.00 | 0.00 | 0.00 | 76 | 1015.0 |
| 20260831033040 | 83 | 165 | 2.0 | 5.0 | 0.00 | 0.00 | 0.00 | 75 | 1014.9 |
| 20260831032540 | 83 | 175 | 1.0 | 5.0 | 0.00 | 0.00 | 0.00 | 75 | 1014.9 |
| 20260831032040 | 83 | 162 | 2.0 | 5.0 | 0.00 | 0.00 | 0.00 | 74 | 1014.9 |
| 20260831031540 | 83 | 159 | 0.0 | 6.0 | 0.00 | 0.00 | 0.00 | 74 | 1014.8 |
| 20260831031043 | 83 | 158 | 2.0 | 6.0 | 0.00 | 0.00 | 0.00 | 74 | 1014.8 |
| 20260831030541 | 83 | 171 | 4.0 | 6.0 | 0.00 | 0.00 | 0.00 | 73 | 1014.8 |
| 20260831030039 | 83 | 152 | 3.0 | 7.0 | 0.00 | 0.00 | 0.00 | 73 | 1014.6 |
| 20260831025539 | 84 | 134 | 4.0 | 7.0 | 0.00 | 0.00 | 0.00 | 72 | 1014.6 |
| 20260831025039 | 84 | 197 | 3.0 | 7.0 | 0.00 | 0.00 | 0.00 | 72 | 1014.5 |
| 20260831024541 | 84 | 162 | 3.0 | 7.0 | 0.00 | 0.00 | 0.00 | 71 | 1014.5 |
| 20260831024038 | 84 | 171 | 4.0 | 7.0 | 0.00 | 0.00 | 0.00 | 71 | 1014.4 |
| 20260831023539 | 84 | 189 | 2.0 | 8.0 | 0.00 | 0.00 | 0.00 | 70 | 1014.3 |
| 20260831023038 | 84 | 141 | 3.0 | 7.0 | 0.00 | 0.00 | 0.00 | 70 | 1014.2 |
| 20260831022538 | 85 | 168 | 2.0 | 6.0 | 0.00 | 0.00 | 0.00 | 69 | 1014.1 |
| 20260831022039 | 85 | 167 | 3.0 | 6.0 | 0.00 | 0.00 | 0.00 | 69 | 1014.1 |
| 20260831021540 | 85 | 177 | 3.0 | 7.0 | 0.00 | 0.00 | 0.00 | 68 | 1014.1 |
| 20260831021043 | 85 | 125 | 3.0 | 7.0 | 0.00 | 0.00 | 0.00 | 68 | 1014.0 |
| 20260831020538 | 85 | 157 | 4.0 | 8.0 | 0.00 | 0.00 | 0.00 | 68 | 1013.8 |
| 20260831020037 | 85 | 178 | 3.0 | 8.0 | 0.00 | 0.00 | 0.00 | 67 | 1013.8 |
| 20260831015537 | 86 | 155 | 3.0 | 6.0 | 0.00 | 0.00 | 0.00 | 66 | 1013.8 |
| 20260831015036 | 86 | 140 | 2.0 | 7.0 | 0.00 | 0.00 | 0.00 | 66 | 1013.7 |
| 20260831014553 | 86 | 171 | 4.0 | 9.0 | 0.00 | 0.00 | 0.00 | 65 | 1013.6 |
| 20260831014036 | 86 | 165 | 3.0 | 9.0 | 0.00 | 0.00 | 0.00 | 65 | 1013.6 |
| 20260831013536 | 86 | 180 | 4.0 | 8.0 | 0.00 | 0.00 | 0.00 | 64 | 1013.7 |
| 20260831013045 | 87 | 172 | 4.0 | 8.0 | 0.00 | 0.00 | 0.00 | 64 | 1013.7 |
| 20260831012536 | 87 | 157 | 4.0 | 10.0 | 0.00 | 0.00 | 0.00 | 63 | 1013.7 |
| 20260831012035 | 87 | 167 | 5.0 | 10.0 | 0.00 | 0.00 | 0.00 | 63 | 1013.6 |
| 20260831011536 | 87 | 170 | 5.0 | 8.0 | 0.00 | 0.00 | 0.00 | 62 | 1013.6 |
| 20260831011035 | 87 | 163 | 4.0 | 9.0 | 0.00 | 0.00 | 0.00 | 61 | 1013.6 |
| 20260831010535 | 88 | 160 | 4.0 | 9.0 | 0.00 | 0.00 | 0.00 | 60 | 1013.6 |
| 20260831010035 | 88 | 167 | 3.0 | 6.0 | 0.00 | 0.00 | 0.00 | 59 | 1013.6 |
| 20260831005535 | 88 | 123 | 2.0 | 8.0 | 0.00 | 0.00 | 0.00 | 59 | 1013.6 |
| 20260831005034 | 89 | 169 | 4.0 | 8.0 | 0.00 | 0.00 | 0.00 | 58 | 1013.5 |
| 20260831004538 | 89 | 129 | 3.0 | 9.0 | 0.00 | 0.00 | 0.00 | 57 | 1013.5 |
| 20260831004036 | 89 | 178 | 5.0 | 10.0 | 0.00 | 0.00 | 0.00 | 57 | 1013.4 |